CW7364 Weather Reports


Display with metric or nautical units.
time (UTC)temp
F
wind
direction
speed
MPH
gust
MPH
rain 1hr
in
rain 24hr
in
rain mn
in
humidity
%
barometer
mb
20221007220515 80 45 8.0 14.0 0.00 0.00 0.00 39 1022.4
20221007215515 81 23 9.0 14.0 0.00 0.00 0.00 39 1022.4
20221007214536 82 23 9.0 18.0 0.00 0.00 0.00 37 1022.4
20221007213516 83 23 8.0 12.0 0.00 0.00 0.00 37 1022.4
20221007212515 83 23 11.0 20.0 0.00 0.00 0.00 36 1022.4
20221007211515 85 23 11.0 18.0 0.00 0.00 0.00 35 1022.4
20221007210536 85 45 8.0 21.0 0.00 0.00 0.00 35 1022.4
20221007205516 86 68 8.0 15.0 0.00 0.00 0.00 34 1022.5
20221007204516 85 23 5.0 11.0 0.00 0.00 0.00 35 1022.3
20221007203515 85 68 9.0 17.0 0.00 0.00 0.00 35 1022.4
20221007202535 85 45 7.0 12.0 0.00 0.00 0.00 35 1022.5
20221007201515 84 45 3.0 9.0 0.00 0.00 0.00 35 1022.6
20221007200515 85 315 3.0 9.0 0.00 0.00 0.00 35 1022.7
20221007195515 84 45 3.0 7.0 0.00 0.00 0.00 33 1022.8
20221007194515 85 45 3.0 10.0 0.00 0.00 0.00 33 1022.8
20221007193515 84 315 3.0 5.0 0.00 0.00 0.00 34 1023.1
20221007192517 84 0 2.0 6.0 0.00 0.00 0.00 33 1023.2
20221007191515 84 45 3.0 5.0 0.00 0.00 0.00 33 1023.3
20221007190517 85 23 3.0 8.0 0.00 0.00 0.00 33 1023.6
20221007185558 85 90 7.0 11.0 0.00 0.00 0.00 32 1023.7
20221007184517 85 68 7.0 11.0 0.00 0.00 0.00 33 1023.9
20221007183537 85 45 6.0 10.0 0.00 0.00 0.00 34 1024.0
20221007182517 85 68 6.0 10.0 0.00 0.00 0.00 35 1024.1
20221007181517 85 23 5.0 11.0 0.00 0.00 0.00 34 1024.2
20221007180537 86 90 5.0 11.0 0.00 0.00 0.00 35 1024.4
20221007175516 86 113 6.0 12.0 0.00 0.00 0.00 33 1024.4
20221007174517 86 90 6.0 14.0 0.00 0.00 0.00 34 1024.5
20221007173557 84 135 5.0 9.0 0.00 0.00 0.00 35 1024.6
20221007172516 83 113 5.0 9.0 0.00 0.00 0.00 36 1024.8
20221007171517 83 90 5.0 9.0 0.00 0.00 0.00 36 1024.9
20221007170617 82 45 6.0 11.0 0.00 0.00 0.00 37 1024.9
20221007160516 80 135 6.0 9.0 0.00 0.00 0.00 41 1024.8
20221007155516 78 113 3.0 6.0 0.00 0.00 0.00 44 1024.8
20221007154516 77 68 4.0 8.0 0.00 0.00 0.00 45 1024.8
20221007151516 75 68 4.0 6.0 0.00 0.00 0.00 49 1024.5
20221007150531 74 90 2.0 4.0 0.00 0.00 0.00 50 1024.5
20221007145516 74 90 3.0 5.0 0.00 0.00 0.00 50 1024.5
20221007141516 72 45 2.0 4.0 0.00 0.00 0.00 52 1024.3
20221007140536 72 45 3.0 4.0 0.00 0.00 0.00 53 1024.2
20221007135516 71 45 4.0 6.0 0.00 0.00 0.00 54 1024.2
20221007134516 69 68 3.0 5.0 0.00 0.00 0.00 57 1023.8
20221007132516 66 68 2.0 4.0 0.00 0.00 0.00 64 1023.6
20221007131536 65 68 2.0 4.0 0.00 0.00 0.00 64 1023.4
20221007130516 63 68 3.0 6.0 0.00 0.00 0.00 66 1023.3
20221007125515 62 45 3.0 4.0 0.00 0.00 0.00 68 1023.2
20221007124516 59 0.0 4.0 0.00 0.00 0.00 73 1023.1
20221007123515 58 0.0 0.0 0.00 0.00 0.00 75 1023.1
20221007122515 59 315 3.0 4.0 0.00 0.00 0.00 75 1022.9
20221007121516 58 315 1.0 3.0 0.00 0.00 0.00 73 1022.9
20221007120515 58 0.0 0.0 0.00 0.00 0.00 74 1022.7
20221007115515 58 0.0 0.0 0.00 0.00 0.00 73 1022.6
20221007114535 59 0.0 1.0 0.00 0.00 0.00 73 1022.7
20221007113515 58 315 3.0 4.0 0.00 0.00 0.00 73 1022.6
20221007112516 58 315 2.0 3.0 0.00 0.00 0.00 73 1022.5
20221007111515 59 315 1.0 2.0 0.00 0.00 0.00 72 1022.5
20221007110515 60 0.0 1.0 0.00 0.00 0.00 70 1022.4
20221007105515 60 0.0 0.0 0.00 0.00 0.00 71 1022.3
20221007104515 60 315 3.0 4.0 0.00 0.00 0.00 71 1022.3
20221007103515 60 315 2.0 3.0 0.00 0.00 0.00 72 1022.2
20221007102515 59 315 2.0 3.0 0.00 0.00 0.00 72 1022.2
20221007101515 59 0.0 0.0 0.00 0.00 0.00 72 1022.0
20221007100516 59 315 1.0 2.0 0.00 0.00 0.00 72 1022.0
20221007095515 60 315 1.0 3.0 0.00 0.00 0.00 70 1022.0
20221007094515 61 315 3.0 5.0 0.00 0.00 0.00 68 1022.0
20221007093517 62 68 1.0 3.0 0.00 0.00 0.00 66 1022.0
20221007092517 63 68 1.0 2.0 0.00 0.00 0.00 64 1022.0
20221007091517 63 68 1.0 3.0 0.00 0.00 0.00 65 1022.1
20221007090517 63 68 3.0 4.0 0.00 0.00 0.00 65 1022.1
20221007085517 63 68 3.0 4.0 0.00 0.00 0.00 65 1022.1
20221007084517 63 45 3.0 4.0 0.00 0.00 0.00 65 1022.1
20221007083517 62 45 2.0 3.0 0.00 0.00 0.00 66 1022.1
20221007082516 62 23 2.0 3.0 0.00 0.00 0.00 66 1022.0
20221007081516 62 0.0 0.0 0.00 0.00 0.00 67 1022.0
20221007080516 62 0.0 2.0 0.00 0.00 0.00 68 1022.0
20221007075517 62 338 3.0 4.0 0.00 0.00 0.00 68 1022.1
20221007074516 63 45 1.0 2.0 0.00 0.00 0.00 66 1022.1
20221007073516 64 0.0 1.0 0.00 0.00 0.00 62 1022.1
20221007072537 64 0.0 1.0 0.00 0.00 0.00 61 1022.1
20221007071516 65 45 2.0 3.0 0.00 0.00 0.00 61 1022.1
20221007070517 65 45 1.0 2.0 0.00 0.00 0.00 61 1022.0
20221007065516 66 0.0 0.0 0.00 0.00 0.00 58 1022.1
20221007064516 67 0.0 0.0 0.00 0.00 0.00 56 1022.1
20221007063516 68 0.0 1.0 0.00 0.00 0.00 55 1022.1
20221007062537 68 0.0 0.0 0.00 0.00 0.00 54 1022.1
20221007061536 68 45 1.0 2.0 0.00 0.00 0.00 54 1022.0
20221007060516 68 45 1.0 3.0 0.00 0.00 0.00 56 1022.0
20221007055536 67 0.0 0.0 0.00 0.00 0.00 57 1022.1
20221007054516 67 0.0 0.0 0.00 0.00 0.00 57 1022.0
20221007053516 68 0.0 0.0 0.00 0.00 0.00 56 1022.1
20221007052516 68 0.0 0.0 0.00 0.00 0.00 55 1022.1
20221007051516 68 45 2.0 3.0 0.00 0.00 0.00 54 1022.1
20221007050516 68 0.0 1.0 0.00 0.00 0.00 54 1022.1
20221007045517 68 0.0 2.0 0.00 0.00 0.00 55 1022.0
20221007044517 68 0.0 4.0 0.00 0.00 0.00 56 1021.8
20221007043517 68 0.0 0.0 0.00 0.00 0.00 55 1022.0
20221007042517 68 0.0 2.0 0.00 0.00 0.00 55 1021.9
20221007041517 69 0.0 1.0 0.00 0.00 0.00 53 1021.8
20221007040557 69 45 2.0 4.0 0.00 0.00 0.00 53 1021.8
20221007035516 69 0.0 2.0 0.00 0.00 0.00 53 1021.5
20221007034516 69 0.0 0.0 0.00 0.00 0.00 53 1021.4
20221007033516 68 0.0 0.0 0.00 0.00 0.00 53 1021.3
20221007032516 68 0.0 0.0 0.00 0.00 0.00 54 1021.3
20221007031516 69 0.0 1.0 0.00 0.00 0.00 54 1021.2
20221007030516 70 158 1.0 3.0 0.00 0.00 0.00 53 1021.3
20221007025516 72 135 2.0 4.0 0.00 0.00 0.00 48 1021.2
20221007024516 75 23 1.0 3.0 0.00 0.00 0.00 44 1021.0
20221007023536 74 23 3.0 5.0 0.00 0.00 0.00 45 1020.8
20221007022516 74 45 1.0 3.0 0.00 0.00 0.00 45 1020.6
20221007021516 75 45 1.0 2.0 0.00 0.00 0.00 45 1020.5
20221007020636 75 45 2.0 4.0 0.00 0.00 0.00 44 1020.4
20221007015516 75 68 1.0 3.0 0.00 0.00 0.00 44 1020.4
20221007014516 74 68 1.0 3.0 0.00 0.00 0.00 44 1020.2
20221007013516 74 68 1.0 2.0 0.00 0.00 0.00 44 1020.1
20221007012516 75 68 2.0 4.0 0.00 0.00 0.00 42 1019.9
20221007011516 76 0.0 2.0 0.00 0.00 0.00 40 1019.7
20221007010516 78 0.0 0.0 0.00 0.00 0.00 39 1019.7
20221007005521 79 0.0 1.0 0.00 0.00 0.00 37 1019.6
20221007004516 80 0.0 2.0 0.00 0.00 0.00 37 1019.4
20221007003516 80 0.0 2.0 0.00 0.00 0.00 36 1019.4
20221007002516 81 0 1.0 2.0 0.00 0.00 0.00 35 1019.3
20221007001516 82 315 1.0 2.0 0.00 0.00 0.00 34 1019.3
20221007000516 82 0.0 1.0 0.00 0.00 0.00 33 1019.2
20221006235516 84 0.0 0.0 0.00 0.00 0.00 33 1019.2
20221006234515 84 0.0 2.0 0.00 0.00 0.00 32 1019.1
20221006233516 85 315 1.0 3.0 0.00 0.00 0.00 31 1019.2
20221006232515 86 338 1.0 4.0 0.00 0.00 0.00 31 1019.1
20221006231516 87 0 1.0 3.0 0.00 0.00 0.00 30 1019.1
20221006230536 87 23 1.0 3.0 0.00 0.00 0.00 30 1019.2
20221006225515 87 23 4.0 10.0 0.00 0.00 0.00 29 1019.2
20221006224515 88 315 3.0 5.0 0.00 0.00 0.00 29 1019.2
20221006223516 88 23 3.0 8.0 0.00 0.00 0.00 29 1019.1
20221006222515 89 68 3.0 11.0 0.00 0.00 0.00 29 1019.1
20221006221515 88 158 1.0 4.0 0.00 0.00 0.00 29 1019.1